• In Belgium
  • List of Countries
  • For 7 days
  • Water Temperature
  • Satellite Maps
  • Weather Map
  • Weather Widgets
  • user-avatar
    Login

    Hourly Weather Tynda

    Today, 15 November, Thursday

    Time Temperature Precipitation Wind Pressure Humidity
    00:00 -22°C° 0 mm 3 mps 707 mmHg 89%
    01:00 -21°C° 0 mm 2 mps 707 mmHg 89%
    02:00 -24°C° 0 mm 2 mps 708 mmHg 89%
    03:00 -24°C° 0 mm 2 mps 708 mmHg 89%
    04:00 -25°C° 0 mm 2 mps 708 mmHg 89%
    05:00 -26°C° 0 mm 2 mps 708 mmHg 89%
    06:00 -26°C° 0 mm 2 mps 708 mmHg 89%
    07:00 -26°C° 0 mm 2 mps 708 mmHg 89%
    08:00 -26°C° 0 mm 2 mps 708 mmHg 84%
    09:00 -24°C° 0 mm 2 mps 708 mmHg 81%
    10:00 -24°C° 0 mm 3 mps 707 mmHg 78%
    11:00 -23°C° 0 mm 3 mps 707 mmHg 75%
    12:00 -22°C° 0 mm 3 mps 707 mmHg 75%
    13:00 -22°C° 0 mm 3 mps 707 mmHg 75%
    14:00 -22°C° 0 mm 3 mps 707 mmHg 76%
    15:00 -23°C° 0 mm 3 mps 707 mmHg 80%
    16:00 -24°C° 0 mm 3 mps 707 mmHg 83%
    17:00 -24°C° 0 mm 2 mps 707 mmHg 87%
    18:00 -24°C° 0 mm 2 mps 706 mmHg 87%
    19:00 -25°C° 0 mm 2 mps 706 mmHg 88%
    20:00 -25°C° 0 mm 2 mps 706 mmHg 87%
    21:00 -26°C° 0 mm 2 mps 706 mmHg 88%
    22:00 -26°C° 0 mm 2 mps 706 mmHg 88%
    23:00 -24°C° 0 mm 1 mps 705 mmHg 89%

    Tomorrow, 16 November, Friday

    Time Temperature Precipitation Wind Pressure Humidity
    00:00 -24°C° 0 mm 1 mps 705 mmHg 89%
    01:00 -24°C° 0 mm 1 mps 705 mmHg 90%
    02:00 -24°C° 0 mm 1 mps 704 mmHg 90%
    03:00 -25°C° 0 mm 1 mps 704 mmHg 90%
    04:00 -25°C° 0 mm 1 mps 704 mmHg 90%
    05:00 -25°C° 0 mm 1 mps 704 mmHg 90%
    06:00 -25°C° 0 mm 1 mps 704 mmHg 90%
    07:00 -25°C° 0 mm 1 mps 704 mmHg 89%
    08:00 -25°C° 0 mm 1 mps 703 mmHg 89%
    09:00 -23°C° 0 mm 1 mps 703 mmHg 84%
    10:00 -21°C° 0 mm 1 mps 703 mmHg 79%
    11:00 -20°C° 0 mm 1 mps 703 mmHg 74%
    12:00 -19°C° 0 mm 1 mps 703 mmHg 75%
    13:00 -19°C° 0 mm 1 mps 703 mmHg 75%
    14:00 -18°C° 0 mm 1 mps 703 mmHg 75%
    15:00 -19°C° 0 mm 1 mps 703 mmHg 79%
    16:00 -21°C° 0 mm 1 mps 703 mmHg 83%
    17:00 -22°C° 0 mm 1 mps 703 mmHg 88%
    18:00 -23°C° 0 mm 1 mps 703 mmHg 88%
    19:00 -23°C° 0 mm 1 mps 703 mmHg 87%
    20:00 -23°C° 0 mm 1 mps 703 mmHg 87%
    21:00 -23°C° 0 mm 1 mps 703 mmHg 87%
    22:00 -23°C° 0 mm 1 mps 703 mmHg 87%
    23:00 -24°C° 0 mm 1 mps 703 mmHg 86%

    Day after tomorrow, 17 November, Saturday

    Time Temperature Precipitation Wind Pressure Humidity
    00:00 -24°C° 0 mm 1 mps 703 mmHg 86%
    01:00 -24°C° 0 mm 1 mps 703 mmHg 86%
    02:00 -24°C° 0 mm 1 mps 703 mmHg 86%
    03:00 -24°C° 0 mm 1 mps 703 mmHg 87%
    04:00 -24°C° 0 mm 1 mps 703 mmHg 87%
    05:00 -23°C° 0 mm 1 mps 703 mmHg 88%
    06:00 -23°C° 0 mm 1 mps 703 mmHg 88%
    07:00 -23°C° 0 mm 1 mps 704 mmHg 88%
    08:00 -23°C° 0 mm 1 mps 704 mmHg 88%
    09:00 -21°C° 0 mm 1 mps 704 mmHg 85%
    10:00 -19°C° 0 mm 1 mps 704 mmHg 81%
    11:00 -17°C° 0 mm 1 mps 704 mmHg 78%
    12:00 -16°C° 0 mm 1 mps 704 mmHg 79%
    13:00 -16°C° 0 mm 1 mps 704 mmHg 80%
    14:00 -15°C° 0 mm 1 mps 704 mmHg 81%
    15:00 -17°C° 0 mm 1 mps 704 mmHg 84%
    16:00 -18°C° 0 mm 1 mps 704 mmHg 88%
    17:00 -19°C° 0 mm 1 mps 704 mmHg 91%
    18:00 -19°C° 0 mm 1 mps 704 mmHg 91%
    19:00 -20°C° 0 mm 1 mps 704 mmHg 91%
    20:00 -20°C° 0 mm 1 mps 704 mmHg 91%
    21:00 -20°C° 0 mm 1 mps 704 mmHg 91%
    22:00 -21°C° 0 mm 1 mps 704 mmHg 92%
    23:00 -21°C° 0 mm 1 mps 704 mmHg 92%

    18 November, Sunday

    Time Temperature Precipitation Wind Pressure Humidity
    00:00 -21°C° 0 mm 1 mps 704 mmHg 92%
    01:00 -21°C° 0 mm 1 mps 704 mmHg 92%
    02:00 -22°C° 0 mm 1 mps 704 mmHg 93%
    03:00 -22°C° 0 mm 1 mps 704 mmHg 93%
    04:00 -22°C° 0 mm 1 mps 704 mmHg 93%
    05:00 -22°C° 0 mm 1 mps 704 mmHg 93%
    06:00 -22°C° 0 mm 1 mps 704 mmHg 92%
    07:00 -22°C° 0 mm 1 mps 704 mmHg 92%
    08:00 -22°C° 0 mm 1 mps 704 mmHg 92%
    09:00 -20°C° 0 mm 1 mps 704 mmHg 87%
    10:00 -19°C° 0 mm 1 mps 704 mmHg 83%
    11:00 -17°C° 0 mm 1 mps 704 mmHg 78%
    12:00 -17°C° 0 mm 1 mps 704 mmHg 79%
    13:00 -17°C° 0 mm 1 mps 704 mmHg 80%
    14:00 -16°C° 0 mm 1 mps 703 mmHg 81%
    15:00 -18°C° 0 mm 1 mps 703 mmHg 85%
    16:00 -19°C° 0 mm 1 mps 704 mmHg 89%
    17:00 -20°C° 0 mm 1 mps 704 mmHg 93%
    18:00 -20°C° 0 mm 1 mps 704 mmHg 93%
    19:00 -21°C° 0 mm 1 mps 704 mmHg 94%
    20:00 -21°C° 0 mm 1 mps 704 mmHg 94%
    21:00 -21°C° 0 mm 1 mps 704 mmHg 94%
    22:00 -22°C° 0 mm 1 mps 704 mmHg 94%
    23:00 -22°C° 0 mm 1 mps 704 mmHg 94%

    19 November, Monday

    Time Temperature Precipitation Wind Pressure Humidity
    00:00 -23°C° 0 mm 1 mps 704 mmHg 94%
    01:00 -23°C° 0 mm 1 mps 703 mmHg 94%
    02:00 -23°C° 0 mm 1 mps 703 mmHg 94%
    03:00 -23°C° 0 mm 1 mps 703 mmHg 94%
    04:00 -24°C° 0 mm 1 mps 703 mmHg 94%
    05:00 -24°C° 0 mm 1 mps 703 mmHg 94%
    06:00 -24°C° 0 mm 1 mps 703 mmHg 94%
    07:00 -24°C° 0 mm 1 mps 703 mmHg 94%
    08:00 -25°C° 0 mm 1 mps 703 mmHg 94%
    09:00 -26°C° 0 mm 2 mps 703 mmHg 90%
    10:00 -25°C° 0 mm 2 mps 703 mmHg 86%
    11:00 -24°C° 0 mm 2 mps 703 mmHg 82%
    12:00 -24°C° 0 mm 2 mps 703 mmHg 82%
    13:00 -24°C° 0 mm 3 mps 703 mmHg 82%
    14:00 -24°C° 0 mm 3 mps 703 mmHg 82%
    15:00 -25°C° 0 mm 3 mps 703 mmHg 85%
    16:00 -25°C° 0 mm 2 mps 703 mmHg 88%
    17:00 -25°C° 0 mm 2 mps 703 mmHg 90%
    18:00 -26°C° 0 mm 2 mps 703 mmHg 91%
    19:00 -27°C° 0 mm 2 mps 703 mmHg 91%
    20:00 -27°C° 0 mm 2 mps 704 mmHg 92%
    21:00 -28°C° 0 mm 2 mps 703 mmHg 92%
    22:00 -28°C° 0 mm 2 mps 703 mmHg 91%
    23:00 -28°C° 0 mm 2 mps 703 mmHg 91%

    20 November, Tuesday

    Time Temperature Precipitation Wind Pressure Humidity
    00:00 -28°C° 0 mm 2 mps 703 mmHg 92%
    01:00 -28°C° 0 mm 2 mps 703 mmHg 92%
    02:00 -29°C° 0 mm 2 mps 703 mmHg 92%
    03:00 -29°C° 0 mm 2 mps 703 mmHg 92%
    04:00 -29°C° 0 mm 2 mps 703 mmHg 92%
    05:00 -29°C° 0 mm 2 mps 703 mmHg 92%
    06:00 -29°C° 0 mm 2 mps 703 mmHg 92%
    07:00 -29°C° 0 mm 2 mps 704 mmHg 92%
    08:00 -29°C° 0 mm 2 mps 704 mmHg 92%
    09:00 -27°C° 0 mm 2 mps 704 mmHg 87%
    10:00 -26°C° 0 mm 2 mps 704 mmHg 83%
    11:00 -24°C° 0 mm 2 mps 704 mmHg 79%
    12:00 -24°C° 0 mm 2 mps 704 mmHg 79%
    13:00 -23°C° 0 mm 2 mps 703 mmHg 79%
    14:00 -23°C° 0 mm 2 mps 703 mmHg 79%
    15:00 -24°C° 0 mm 2 mps 703 mmHg 83%
    16:00 -23°C° 0 mm 1 mps 703 mmHg 87%
    17:00 -24°C° 0 mm 1 mps 703 mmHg 91%
    18:00 -24°C° 0 mm 1 mps 703 mmHg 91%
    19:00 -25°C° 0 mm 1 mps 702 mmHg 91%
    20:00 -25°C° 0 mm 1 mps 702 mmHg 90%
    21:00 -25°C° 0 mm 1 mps 702 mmHg 90%
    22:00 -27°C° 0 mm 1 mps 702 mmHg 90%
    23:00 -27°C° 0 mm 1 mps 701 mmHg 89%
    Show more